#timestamp,LO_Frequency,Hit,StdDev 
1586077215.3,286047002.6,N
1586077235.2,286047002.0,N
1586077255.0,286047000.2,N
1586077255.9,286047000.2,N
1586077275.8,286047001.7,N
1586077295.6,286047004.4,N
1586077315.4,286047000.8,N
1586077335.3,286046999.9,N
1586077355.1,286047000.9,N
1586077375.9,286047001.2,N
1586077395.7,286046999.3,N
1586077415.5,286047002.8,N
1586077435.4,286047000.5,N
1586077455.2,286047001.2,N
1586077475.0,286046999.0,N
1586077475.9,286046999.0,N
1586077495.8,286046999.3,N
1586077515.6,286046998.1,N
1586077535.5,286046999.2,N
1586077555.3,286046998.3,N
1586077575.1,286047000.9,N
1586077595.9,286046999.9,N
1586077615.7,286046999.8,N
1586077635.6,286046998.4,N
1586077655.4,286046999.6,N
1586077675.2,286046996.6,N
1586077695.1,286046998.4,N
1586077696.0,286046998.4,N
1586077715.8,286047000.0,N
1586077735.7,286046998.7,N
1586077755.5,286046999.7,N
1586077775.3,286046998.4,N
1586077795.2,286046999.0,N
1586077815.0,286046999.5,N
1586077815.9,286046999.5,N
1586077835.8,286047001.2,N
1586077855.6,286047000.1,N
1586077875.4,286047000.7,N
1586077895.3,286047000.1,N
1586077915.1,286047001.0,N
1586077935.9,286047002.4,N
1586077955.7,286047000.5,N
1586077975.5,286047001.1,N
1586077995.4,286047004.4,Y
1586078015.2,286046999.7,P
1586078035.1,286046999.7,P
1586078036.0,286046999.7,P
1586078055.8,286047002.2,Y
1586078075.6,286047002.6,P
1586078095.5,286047001.6,N
1586078115.3,286047002.1,N
1586078135.2,286047000.7,N
1586078155.9,286047002.8,N
1586078175.7,286047002.7,N
1586078195.6,286047002.1,N
1586078215.4,286046999.7,N
1586078235.3,286047001.4,N
1586078255.1,286047001.9,N
1586078256.0,286047001.9,N
1586078275.8,286046998.5,N
1586078295.7,286046999.6,N
1586078315.5,286046997.3,N
1586078335.3,286046998.5,N
1586078355.2,286046999.6,N
1586078375.0,286046999.4,N
1586078375.9,286046999.4,N
1586078395.8,286046999.1,N
1586078415.6,286047000.8,N
1586078435.4,286046998.2,N
1586078455.3,286046999.4,N
1586078475.3,286046999.1,N
1586078495.1,286047002.2,N
1586078515.9,286047004.4,N
1586078535.7,286047001.4,N
1586078555.6,286047002.6,N
1586078575.4,286047002.2,N
1586078595.2,286047002.4,N
1586078615.1,286047000.9,N
1586078616.0,286047000.9,N
1586078635.8,286047001.6,N
1586078655.7,286047003.9,N
1586078675.5,286047001.9,N
1586078695.3,286047001.7,N
1586078715.2,286047002.2,N
1586078735.0,286047000.8,N
1586078735.9,286047000.8,N
1586078755.8,286047002.7,N
1586078775.6,286047001.9,N
1586078795.5,286047001.2,N
1586078815.3,286047000.6,N
1586078835.1,286047000.9,N
1586078855.9,286047000.5,N
1586078875.7,286046998.7,N
1586078895.5,286047000.9,N
1586078915.4,286046998.1,N
1586078935.2,286046998.3,N
1586078955.1,286046999.8,N
1586078956.0,286046999.8,N
1586078975.8,286046998.1,N
1586078995.6,286046998.6,N
1586079015.5,286046998.5,N
1586079035.3,286046994.9,Y
1586079055.2,286046994.9,P
1586079075.9,286046996.8,N
1586079095.7,286046997.4,N
1586079115.6,286046995.2,N
1586079135.4,286046999.4,N
1586079155.3,286046996.9,N
1586079175.1,286046999.0,N
1586079176.0,286046999.0,N
1586079195.8,286046996.9,N
1586079215.7,286047001.1,N
1586079235.5,286047001.1,N
1586079255.4,286047000.9,N
1586079275.2,286046998.1,N
1586079295.0,286046998.4,N
1586079295.9,286046998.4,N
1586079315.8,286046999.0,N
1586079335.6,286047000.2,N
1586079355.5,286047002.3,N
1586079375.3,286047000.1,N
1586079395.1,286047000.5,N
1586079415.9,286046998.7,N
1586079435.7,286046999.1,N
1586079455.5,286046999.1,N
1586079475.4,286046999.2,N
1586079495.2,286046999.1,N
1586079515.1,286047001.1,N
1586079516.0,286047001.1,N
1586079535.8,286047002.8,N
1586079555.6,286047002.3,N
1586079575.5,286047003.9,N
1586079595.3,286047003.1,N
1586079615.2,286047003.1,N
1586079635.9,286047001.3,N
1586079655.7,286047004.1,N
1586079675.6,286047002.3,N
1586079695.4,286046999.7,N
1586079715.3,286047001.5,N
1586079735.1,286047003.2,N
1586079736.0,286047003.2,N
1586079755.8,286047004.3,N
1586079775.7,286047002.2,N
1586079795.5,286046998.4,N
1586079815.4,286047000.6,N
1586079835.2,286046999.4,N
1586079855.0,286046999.5,N
1586079855.9,286046999.5,N
1586079875.8,286046998.1,N
1586079895.6,286046999.0,N
1586079915.4,286046999.6,N
1586079935.3,286046996.6,N
1586079955.1,286046998.0,N
1586079975.9,286046995.3,N
1586079995.7,286046995.3,N
1586080015.5,286046995.2,N
1586080035.4,286046995.0,N
1586080055.2,286046995.4,N
1586080075.1,286046996.2,N
1586080076.0,286046996.2,N
1586080095.8,286046995.7,N
1586080115.6,286046995.1,N
1586080135.5,286046995.5,N
1586080155.3,286046993.8,N
1586080175.1,286046996.0,N
1586080195.9,286046993.4,N
1586080215.7,286046992.1,N
1586080235.6,286046991.9,N
1586080255.4,286046992.4,N
1586080275.2,286046991.8,N
1586080295.1,286046991.8,N
1586080296.0,286046991.8,N
1586080315.8,286046993.8,N
1586080335.7,286046992.5,N
1586080355.5,286046993.0,N
1586080375.3,286046992.0,Y
1586080395.2,286046996.0,P
1586080415.0,286046994.0,P
1586080415.9,286046994.0,P
1586080435.8,286046994.6,Y
1586080455.6,286046997.2,P
1586080475.4,286046997.0,N
1586080495.3,286046997.3,N
1586080515.1,286046996.6,Y
1586080535.9,286047000.5,P
1586080555.7,286047000.2,N
1586080575.5,286047000.8,N
1586080595.4,286046999.9,N
1586080615.2,286046999.5,N
1586080635.0,286046998.9,N
1586080635.9,286046998.9,N
1586080655.8,286046999.5,N
1586080675.6,286046997.3,N
1586080695.5,286046999.2,N
1586080715.3,286046995.3,Y
1586080735.1,286046997.1,P
1586080755.9,286046997.0,N
1586080775.7,286046999.0,N
1586080795.6,286046999.5,N
